DW1389 Weather Reports


Display with metric or nautical units.
time (UTC)temp
F
wind
direction
speed
MPH
gust
MPH
rain 1hr
in
rain 24hr
in
rain mn
in
humidity
%
barometer
mb
20260831212801 99 337 2.0 5.0 0.00 0.00 0.00 36 1013.0
20260831212301 98 156 2.0 5.0 0.00 0.00 0.00 34 1013.1
20260831211801 98 265 2.0 6.0 0.00 0.00 0.00 34 1013.1
20260831211301 98 322 2.0 6.0 0.00 0.00 0.00 37 1013.2
20260831210800 98 225 2.0 6.0 0.00 0.00 0.00 39 1013.4
20260831210302 97 80 3.0 8.0 0.00 0.00 0.00 39 1013.4
20260831205818 97 75 3.0 7.0 0.00 0.00 0.00 40 1013.6
20260831205811 97 2 3.0 8.0 0.00 0.00 0.00 39 1013.5
20260831204801 98 5 4.0 7.0 0.00 0.00 0.00 39 1013.6
20260831204301 99 4 3.0 7.0 0.00 0.00 0.00 39 1013.7
20260831203802 98 102 3.0 9.0 0.00 0.00 0.00 40 1013.9
20260831203301 98 12 3.0 11.0 0.00 0.00 0.00 39 1013.9
20260831202803 99 192 4.0 11.0 0.00 0.00 0.00 39 1014.0
20260831202305 98 263 2.0 6.0 0.00 0.00 0.00 41 1014.1
20260831202030 98 21 2.0 8.0 0.00 0.00 0.00 41 1014.1
20260831201300 98 123 2.0 8.0 0.00 0.00 0.00 40 1014.3
20260831200802 96 115 2.0 6.0 0.00 0.00 0.00 41 1014.3
20260831200301 96 42 2.0 7.0 0.00 0.00 0.00 42 1014.4
20260831200052 96 104 3.0 7.0 0.00 0.00 0.00 42 1014.4
20260831195301 96 89 3.0 7.0 0.00 0.00 0.00 39 1014.5
20260831195053 96 98 3.0 8.0 0.00 0.00 0.00 41 1014.5
20260831194301 97 54 3.0 9.0 0.00 0.00 0.00 41 1014.5
20260831193801 97 122 3.0 9.0 0.00 0.00 0.00 42 1014.7
20260831193301 97 334 2.0 7.0 0.00 0.00 0.00 43 1014.7
20260831192802 97 130 2.0 5.0 0.00 0.00 0.00 44 1014.7
20260831192305 97 87 2.0 5.0 0.00 0.00 0.00 42 1014.9
20260831191804 97 315 2.0 5.0 0.00 0.00 0.00 43 1014.9
20260831191301 97 332 2.0 5.0 0.00 0.00 0.00 43 1014.9
20260831190802 98 347 2.0 6.0 0.00 0.00 0.00 43 1015.0
20260831190302 97 269 2.0 9.0 0.00 0.00 0.00 42 1015.2
20260831185800 97 145 2.0 9.0 0.00 0.00 0.00 43 1015.3
20260831185301 96 199 2.0 8.0 0.00 0.00 0.00 46 1015.3
20260831184802 96 332 2.0 6.0 0.00 0.00 0.00 45 1015.3
20260831184546 96 24 2.0 7.0 0.00 0.00 0.00 45 1015.5
20260831184046 96 168 2.0 7.0 0.00 0.00 0.00 44 1015.5
20260831183302 96 144 2.0 6.0 0.00 0.00 0.00 47 1015.5
20260831182801 95 288 2.0 6.0 0.00 0.00 0.00 46 1015.6
20260831182545 95 208 2.0 6.0 0.00 0.00 0.00 46 1015.5
20260831181803 95 4 2.0 9.0 0.00 0.00 0.00 47 1015.6
20260831181302 95 69 2.0 9.0 0.00 0.00 0.00 48 1015.7
20260831181046 95 116 2.0 6.0 0.00 0.00 0.00 49 1015.7
20260831180300 94 83 2.0 5.0 0.00 0.00 0.00 50 1015.7
20260831180047 94 359 2.0 6.0 0.00 0.00 0.00 50 1015.8
20260831175305 94 325 2.0 7.0 0.00 0.00 0.00 49 1015.9
20260831174802 94 233 2.0 7.0 0.00 0.00 0.00 51 1016.0
20260831174302 94 52 3.0 6.0 0.00 0.00 0.00 49 1016.1
20260831174048 94 267 3.0 6.0 0.00 0.00 0.00 49 1016.1
20260831173301 93 144 2.0 5.0 0.00 0.00 0.00 50 1016.2
20260831172800 93 58 2.0 8.0 0.00 0.00 0.00 50 1016.3
20260831172305 94 230 2.0 8.0 0.00 0.00 0.00 48 1016.3
20260831172045 93 217 2.0 5.0 0.00 0.00 0.00 50 1016.3
20260831171543 93 0 1.0 8.0 0.00 0.00 0.00 54 1016.3
20260831170802 92 96 2.0 8.0 0.00 0.00 0.00 54 1016.5
20260831170301 92 326 2.0 6.0 0.00 0.00 0.00 56 1016.5
20260831165802 92 327 2.0 6.0 0.00 0.00 0.00 55 1016.6
20260831165305 92 340 2.0 6.0 0.00 0.00 0.00 54 1016.6
20260831164801 91 187 2.0 4.0 0.00 0.00 0.00 57 1016.6
20260831164302 91 126 2.0 6.0 0.00 0.00 0.00 58 1016.6
20260831163801 91 210 2.0 6.0 0.00 0.00 0.00 58 1016.6
20260831163301 92 154 2.0 6.0 0.00 0.00 0.00 57 1016.5
20260831163043 90 77 2.0 6.0 0.00 0.00 0.00 58 1016.5
20260831162305 90 107 2.0 7.0 0.00 0.00 0.00 58 1016.5
20260831161801 90 292 2.0 7.0 0.00 0.00 0.00 59 1016.5
20260831161301 90 125 2.0 7.0 0.00 0.00 0.00 59 1016.4
20260831160800 90 299 2.0 6.0 0.00 0.00 0.00 60 1016.5
20260831160301 90 74 2.0 6.0 0.00 0.00 0.00 61 1016.5
20260831160046 89 161 2.0 6.0 0.00 0.00 0.00 60 1016.5
20260831155306 89 106 2.0 5.0 0.00 0.00 0.00 60 1016.5
20260831154801 89 215 2.0 5.0 0.00 0.00 0.00 61 1016.5
20260831154546 89 110 2.0 7.0 0.00 0.00 0.00 59 1016.6
20260831153801 89 213 2.0 7.0 0.00 0.00 0.00 63 1016.5
20260831153301 89 166 2.0 5.0 0.00 0.00 0.00 64 1016.5
20260831152800 89 70 1.0 4.0 0.00 0.00 0.00 64 1016.4
20260831152547 89 340 2.0 5.0 0.00 0.00 0.00 66 1016.5
20260831151801 88 353 2.0 5.0 0.00 0.00 0.00 67 1016.4
20260831151300 88 10 2.0 5.0 0.00 0.00 0.00 68 1016.4
20260831150801 88 205 2.0 5.0 0.00 0.00 0.00 68 1016.4
20260831150302 87 267 2.0 5.0 0.00 0.00 0.00 69 1016.3
20260831145800 87 228 2.0 7.0 0.00 0.00 0.00 72 1016.3
20260831145306 86 223 3.0 7.0 0.00 0.00 0.00 72 1016.3
20260831144801 85 182 3.0 7.0 0.00 0.00 0.00 72 1016.2
20260831144302 0 225 3.0 4.0 0.00 0.00 0.00
20260831143802 84 225 3.0 8.0 0.00 0.00 0.00 74 1016.2
20260831143301 84 225 3.0 8.0 0.00 0.00 0.00 74 1016.2
20260831142801 84 235 3.0 7.0 0.00 0.00 0.00 76 1016.2
20260831142305 82 207 4.0 7.0 0.00 0.00 0.00 78 1016.2
20260831141802 82 221 4.0 7.0 0.00 0.00 0.00 78 1016.2
20260831141301 82 205 4.0 7.0 0.00 0.00 0.00 79 1016.1
20260831141032 83 212 3.0 6.0 0.00 0.00 0.00 79 1016.1
20260831140305 83 218 3.0 6.0 0.00 0.00 0.00 79 1016.1
20260831135803 83 219 5.0 0.0 0.00 0.00 0.00 79 1016.1
20260831135504 83 270 4.0 6.0 0.00 0.00 0.00 81 1015.9
20260831135002 83 270 4.0 7.0 0.00 0.00 0.00 81 1015.9
20260831134712 83 192 3.0 7.0 0.00 0.00 0.00 80 1015.9
20260831133932 82 213 3.0 6.0 0.00 0.00 0.00 81 1015.9
20260831133435 82 226 3.0 6.0 0.00 0.00 0.00 81 1015.8
20260831132932 82 212 3.0 5.0 0.00 0.00 0.00 82 1015.8
20260831132432 82 226 2.0 5.0 0.00 0.00 0.00 83 1015.8
20260831131931 81 190 2.0 3.0 0.00 0.00 0.00 85 1015.7
20260831131430 81 191 1.0 3.0 0.00 0.00 0.00 85 1015.7
20260831130931 81 96 1.0 2.0 0.00 0.00 0.00 86 1015.7
20260831130433 80 114 1.0 3.0 0.00 0.00 0.00 87 1015.6
20260831125930 80 212 1.0 3.0 0.00 0.00 0.00 88 1015.6
20260831125430 80 148 1.0 2.0 0.00 0.00 0.00 88 1015.5
20260831124930 79 0 0.0 2.0 0.00 0.00 0.00 89 1015.4
20260831124429 78 218 1.0 3.0 0.00 0.00 0.00 90 1015.3
20260831123931 78 147 1.0 3.0 0.00 0.00 0.00 91 1015.3
20260831123431 78 206 0.0 3.0 0.00 0.00 0.00 92 1015.3
20260831123154 78 0 1.0 2.0 0.00 0.00 0.00 91 1015.3
20260831122429 78 192 1.0 2.0 0.00 0.00 0.00 91 1015.3
20260831121930 78 204 0.0 2.0 0.00 0.00 0.00 91 1015.2
20260831121430 78 173 0.0 2.0 0.00 0.00 0.00 91 1015.2
20260831120931 78 314 1.0 2.0 0.00 0.00 0.00 91 1015.2
20260831120430 78 239 1.0 2.0 0.00 0.00 0.00 90 1015.2
20260831120158 78 204 2.0 3.0 0.00 0.00 0.00 90 1015.2
20260831115654 78 192 2.0 3.0 0.00 0.00 0.00 90 1015.2
20260831114929 78 216 2.0 3.0 0.00 0.00 0.00 90 1015.2
20260831114430 78 207 2.0 3.0 0.00 0.00 0.00 90 1015.2
20260831113930 78 242 1.0 3.0 0.00 0.00 0.00 90 1015.0
20260831113430 78 211 2.0 4.0 0.00 0.00 0.00 90 1015.2
20260831113159 78 197 2.0 4.0 0.00 0.00 0.00 89 1015.2
20260831112430 78 204 2.0 5.0 0.00 0.00 0.00 89 1015.2
20260831111928 79 238 2.0 5.0 0.00 0.00 0.00 89 1015.2
20260831111429 79 219 2.0 5.0 0.00 0.00 0.00 89 1015.0
20260831111156 79 233 2.0 3.0 0.00 0.00 0.00 89 1014.9
20260831110430 79 182 2.0 4.0 0.00 0.00 0.00 88 1014.9
20260831105930 79 207 2.0 4.0 0.00 0.00 0.00 88 1014.9
20260831105430 79 160 2.0 5.0 0.00 0.00 0.00 88 1014.9
20260831104930 79 277 2.0 5.0 0.00 0.00 0.00 88 1014.9
20260831104656 79 225 2.0 4.0 0.00 0.00 0.00 88 1014.8
20260831103930 79 202 2.0 4.0 0.00 0.00 0.00 88 1014.8
20260831103431 79 280 3.0 6.0 0.00 0.00 0.00 87 1014.8
20260831102930 79 279 3.0 6.0 0.00 0.00 0.00 87 1014.9
20260831102428 79 185 3.0 5.0 0.00 0.00 0.00 87 1014.9
20260831101929 79 182 2.0 5.0 0.00 0.00 0.00 87 1014.9
20260831101429 79 240 2.0 4.0 0.00 0.00 0.00 88 1015.0
20260831100934 79 274 3.0 5.0 0.00 0.00 0.00 87 1015.0
20260831100653 79 203 3.0 6.0 0.00 0.00 0.00 87 1015.0
20260831095929 79 229 2.0 6.0 0.00 0.00 0.00 87 1015.2
20260831095430 79 167 3.0 7.0 0.00 0.00 0.00 88 1015.0
20260831094930 79 228 3.0 7.0 0.00 0.00 0.00 88 1015.0
20260831094429 79 239 3.0 7.0 0.00 0.00 0.00 88 1014.9
20260831093930 79 228 2.0 6.0 0.00 0.00 0.00 88 1014.9
20260831093430 79 220 2.0 5.0 0.00 0.00 0.00 88 1014.9
20260831093155 78 203 2.0 4.0 0.00 0.00 0.00 88 1014.9
20260831092430 78 190 2.0 4.0 0.00 0.00 0.00 88 1014.8
20260831091930 78 295 2.0 4.0 0.00 0.00 0.00 87 1014.8
20260831091429 0 230 2.0 2.0 0.00 0.00 0.00
20260831090931 79 212 2.0 4.0 0.00 0.00 0.00 87 1014.7
20260831090653 79 232 2.0 4.0 0.00 0.00 0.00 87 1014.7
20260831085930 79 204 3.0 5.0 0.00 0.00 0.00 87 1014.8
20260831085430 79 210 2.0 5.0 0.00 0.00 0.00 86 1014.8
20260831084930 79 205 2.0 5.0 0.00 0.00 0.00 86 1014.9
20260831084429 79 247 2.0 5.0 0.00 0.00 0.00 86 1014.9
20260831083931 79 170 2.0 6.0 0.00 0.00 0.00 86 1014.9
20260831083430 79 205 2.0 6.0 0.00 0.00 0.00 86 1014.9
20260831082930 79 240 2.0 8.0 0.00 0.00 0.00 86 1014.9
20260831082430 79 72 2.0 8.0 0.00 0.00 0.00 85 1014.8
20260831081930 79 298 2.0 5.0 0.00 0.00 0.00 85 1014.8
20260831081429 80 287 3.0 6.0 0.00 0.00 0.00 85 1014.8
20260831080930 80 237 2.0 6.0 0.00 0.00 0.00 84 1014.9
20260831080430 80 239 2.0 7.0 0.00 0.00 0.00 83 1014.9
20260831080214 80 258 2.0 7.0 0.00 0.00 0.00 82 1014.9
20260831075430 80 321 2.0 3.0 0.00 0.00 0.00 81 1014.8
20260831074929 80 210 2.0 4.0 0.00 0.00 0.00 80 1014.9
20260831074429 80 278 2.0 4.0 0.00 0.00 0.00 80 1014.8
20260831073930 80 223 2.0 4.0 0.00 0.00 0.00 80 1014.9
20260831073430 80 212 1.0 3.0 0.00 0.00 0.00 79 1014.9
20260831072930 80 202 2.0 3.0 0.00 0.00 0.00 79 1015.0
20260831072430 80 199 2.0 4.0 0.00 0.00 0.00 78 1015.0
20260831072204 80 179 1.0 4.0 0.00 0.00 0.00 78 1015.0
20260831071430 80 122 1.0 3.0 0.00 0.00 0.00 78 1014.9
20260831070930 81 279 2.0 4.0 0.00 0.00 0.00 77 1014.9
20260831070659 81 273 2.0 4.0 0.00 0.00 0.00 77 1014.9
20260831065926 81 277 1.0 2.0 0.00 0.00 0.00 76 1014.9
20260831065411 81 213 1.0 0.0 0.00 0.00 0.00 76 1014.9
20260831065254 82 186 2.0 3.0 0.00 0.00 0.00 74 1015.2
20260831064754 82 186 2.0 3.0 0.00 0.00 0.00 74 1015.2
20260831064030 82 128 2.0 3.0 0.00 0.00 0.00 74 1015.2
20260831063530 82 197 2.0 3.0 0.00 0.00 0.00 74 1015.2
20260831063030 82 105 2.0 4.0 0.00 0.00 0.00 73 1015.2
20260831062530 82 148 2.0 4.0 0.00 0.00 0.00 73 1015.0
20260831062030 83 143 1.0 3.0 0.00 0.00 0.00 71 1015.0
20260831061531 83 143 1.0 3.0 0.00 0.00 0.00 71 1015.0
20260831061031 83 171 1.0 3.0 0.00 0.00 0.00 71 1014.9
20260831060530 83 290 1.0 3.0 0.00 0.00 0.00 70 1014.9
20260831060030 83 335 1.0 3.0 0.00 0.00 0.00 70 1014.9
20260831055530 83 310 2.0 2.0 0.00 0.00 0.00 69 1014.8
20260831055221 83 310 2.0 2.0 0.00 0.00 0.00 69 1014.8
20260831054503 83 156 1.0 4.0 0.00 0.00 0.00 68 1014.8
20260831054002 83 133 2.0 4.0 0.00 0.00 0.00 68 1014.8
20260831053502 84 168 2.0 4.0 0.00 0.00 0.00 67 1014.8
20260831053002 84 198 2.0 4.0 0.00 0.00 0.00 67 1014.7
20260831052501 84 61 2.0 3.0 0.00 0.00 0.00 66 1014.7
20260831052001 84 214 1.0 3.0 0.00 0.00 0.00 66 1014.7
20260831051502 84 117 1.0 4.0 0.00 0.00 0.00 66 1014.7
20260831051003 84 286 2.0 4.0 0.00 0.00 0.00 65 1014.6
20260831050454 85 229 1.0 4.0 0.00 0.00 0.00 65 1014.6
20260831045954 85 310 2.0 3.0 0.00 0.00 0.00 64 1014.6
20260831045710 85 238 2.0 5.0 0.00 0.00 0.00 64 1014.6
20260831044931 85 122 2.0 6.0 0.00 0.00 0.00 64 1014.5
20260831044427 85 233 2.0 6.0 0.00 0.00 0.00 63 1014.4
20260831043924 85 56 2.0 4.0 0.00 0.00 0.00 63 1014.4
20260831043410 85 86 2.0 4.0 0.00 0.00 0.00 63 1014.4
20260831042907 86 118 2.0 5.0 0.00 0.00 0.00 63 1014.4
20260831042408 86 303 2.0 5.0 0.00 0.00 0.00 62 1014.4
20260831042033 86 183 2.0 5.0 0.00 0.00 0.00 62 1014.4
20260831042016 86 33 2.0 6.0 0.00 0.00 0.00 62 1014.4
20260831041709 86 217 2.0 6.0 0.00 0.00 0.00 62 1014.4
20260831040408 86 185 2.0 6.0 0.00 0.00 0.00 62 1014.4
20260831035902 86 293 2.0 6.0 0.00 0.00 0.00 62 1014.3
20260831035403 86 161 2.0 7.0 0.00 0.00 0.00 62 1014.3
20260831035149 86 253 3.0 7.0 0.00 0.00 0.00 61 1014.2
20260831034402 87 107 2.0 4.0 0.00 0.00 0.00 61 1014.1
20260831033905 87 107 2.0 5.0 0.00 0.00 0.00 61 1014.1
20260831033356 87 235 3.0 0.0 0.00 0.00 0.00 61 1014.0
20260831032930 87 322 2.0 6.0 0.00 0.00 0.00 60 1014.0
20260831032430 87 322 2.0 6.0 0.00 0.00 0.00 60 1014.0
20260831031928 87 221 2.0 5.0 0.00 0.00 0.00 60 1014.0
20260831031656 87 132 2.0 5.0 0.00 0.00 0.00 60 1014.0
20260831030925 87 87 2.0 4.0 0.00 0.00 0.00 60 1013.9
20260831030655 87 215 2.0 7.0 0.00 0.00 0.00 60 1013.8
20260831025922 87 187 3.0 7.0 0.00 0.00 0.00 59 1013.6
20260831025411 88 30 3.0 6.0 0.00 0.00 0.00 59 1013.6
20260831024909 88 99 2.0 6.0 0.00 0.00 0.00 59 1013.6
20260831024410 88 118 3.0 7.0 0.00 0.00 0.00 59 1013.6
20260831023904 88 137 2.0 7.0 0.00 0.00 0.00 58 1013.5
20260831023649 88 88 3.0 7.0 0.00 0.00 0.00 58 1013.4
20260831023143 89 56 4.0 9.0 0.00 0.00 0.00 58 1013.4
20260831022404 89 1 3.0 9.0 0.00 0.00 0.00 58 1013.2
20260831021903 89 62 3.0 8.0 0.00 0.00 0.00 57 1013.2
20260831021401 89 77 3.0 7.0 0.00 0.00 0.00 57 1013.1
20260831020901 89 60 3.0 7.0 0.00 0.00 0.00 55 1013.0
20260831020405 90 91 3.0 6.0 0.00 0.00 0.00 52 1013.0
20260831015902 90 153 3.0 5.0 0.00 0.00 0.00 50 1012.9
20260831015402 90 126 2.0 5.0 0.00 0.00 0.00 48 1012.8
20260831014902 90 15 2.0 4.0 0.00 0.00 0.00 47 1012.6
20260831014402 91 94 2.0 4.0 0.00 0.00 0.00 46 1012.5
20260831013902 91 96 2.0 4.0 0.00 0.00 0.00 45 1012.4
20260831013403 91 91 2.0 4.0 0.00 0.00 0.00 45 1012.3
20260831012902 91 102 2.0 3.0 0.00 0.00 0.00 44 1012.3
20260831012635 91 101 1.0 3.0 0.00 0.00 0.00 44 1012.3
20260831011901 91 53 1.0 3.0 0.00 0.00 0.00 43 1012.2
20260831011402 92 72 1.0 2.0 0.00 0.00 0.00 43 1012.2
20260831010901 92 38 1.0 3.0 0.00 0.00 0.00 43 1012.2
20260831010647 92 0 1.0 3.0 0.00 0.00 0.00 43 1012.2
20260831005901 93 115 1.0 5.0 0.00 0.00 0.00 42 1012.2
20260831005402 93 313 1.0 5.0 0.00 0.00 0.00 42 1012.2
20260831005141 93 29 1.0 4.0 0.00 0.00 0.00 42 1012.2
20260831004401 94 358 1.0 5.0 0.00 0.00 0.00 41 1012.2
20260831003901 94 218 1.0 5.0 0.00 0.00 0.00 41 1012.2
20260831003402 94 320 1.0 4.0 0.00 0.00 0.00 41 1012.1
20260831002901 95 332 1.0 5.0 0.00 0.00 0.00 40 1012.1
20260831002401 95 80 2.0 6.0 0.00 0.00 0.00 40 1012.0
20260831001900 95 80 2.0 6.0 0.00 0.00 0.00 40 1012.0
20260831001645 95 290 2.0 8.0 0.00 0.00 0.00 40 1012.0
20260831000901 95 291 2.0 8.0 0.00 0.00 0.00 40 1012.0
20260831000402 96 359 3.0 7.0 0.00 0.00 0.00 39 1012.0
20260830235901 96 171 2.0 7.0 0.00 0.00 0.00 39 1012.0
20260830235401 96 116 2.0 7.0 0.00 0.00 0.00 39 1012.1
20260830234900 96 87 2.0 6.0 0.00 0.00 0.00 39 1012.1
20260830234401 97 0 2.0 7.0 0.00 0.00 0.00 38 1012.1
20260830233901 97 19 2.0 7.0 0.00 0.00 0.00 38 1012.1
20260830233401 97 78 2.0 6.0 0.00 0.00 0.00 37 1012.1
20260830232901 97 185 2.0 6.0 0.00 0.00 0.00 37 1012.1
20260830232648 96 237 3.0 6.0 0.00 0.00 0.00 38 1012.1
20260830231901 96 59 3.0 6.0 0.00 0.00 0.00 38 1012.1
20260830231402 97 65 3.0 7.0 0.00 0.00 0.00 38 1012.1
20260830230902 97 6 3.0 7.0 0.00 0.00 0.00 39 1012.1
20260830230650 97 134 2.0 6.0 0.00 0.00 0.00 39 1012.1
20260830225901 97 105 2.0 5.0 0.00 0.00 0.00 40 1012.1
20260830225401 97 62 3.0 8.0 0.00 0.00 0.00 40 1012.1
20260830224901 98 54 2.0 8.0 0.00 0.00 0.00 40 1012.2
20260830224401 98 84 2.0 6.0 0.00 0.00 0.00 38 1012.2
20260830224149 97 225 2.0 6.0 0.00 0.00 0.00 40 1012.2
20260830223401 98 330 2.0 9.0 0.00 0.00 0.00 40 1012.3
20260830222901 98 218 2.0 9.0 0.00 0.00 0.00 40 1012.2
20260830222401 99 348 2.0 7.0 0.00 0.00 0.00 39 1012.2
20260830222153 99 0 2.0 6.0 0.00 0.00 0.00 38 1012.2
20260830221401 98 0 2.0 6.0 0.00 0.00 0.00 39 1012.3
20260830221148 98 120 2.0 6.0 0.00 0.00 0.00 39 1012.3
20260830220401 98 307 2.0 5.0 0.00 0.00 0.00 39 1012.3
20260830215902 98 109 2.0 6.0 0.00 0.00 0.00 40 1012.4
20260830215648 98 39 2.0 6.0 0.00 0.00 0.00 40 1012.5
20260830214902 97 127 2.0 6.0 0.00 0.00 0.00 41 1012.5
20260830214649 97 348 2.0 6.0 0.00 0.00 0.00 42 1012.5
20260830213902 96 359 2.0 6.0 0.00 0.00 0.00 41 1012.5
20260830213401 95 128 2.0 8.0 0.00 0.00 0.00 43 1012.7
20260830213150 96 215 2.0 8.0 0.00 0.00 0.00 42 1012.8